BEIJING 1 1 28890U 05043A 25310.32389148 .00000557 00000+0 11731-3 0 9990 2 28890 98.2627 77.7515 0013445 258.1013 101.8682 14.63311348 68051 HUANJING 1A (HJ-1A) 1 33320U 08041A 25310.26868446 .00001750 00000+0 21975-3 0 9998 2 33320 97.6522 300.0986 0020015 146.2742 213.9751 14.83221568925356 HUANJING 1B (HJ-1B) 1 33321U 08041B 25310.28096168 .00002739 00000+0 34200-3 0 9998 2 33321 97.6387 303.9005 0036274 192.6389 167.3920 14.82688591925370 YAOGAN-4 1 33446U 08061A 25310.29391757 .00001760 00000+0 22535-3 0 9992 2 33446 97.9132 240.7660 0016048 77.5222 282.7785 14.82507330912635 DEIMOS-1 1 35681U 09041A 25310.28305326 .00001707 00000+0 26162-3 0 9991 2 35681 97.7139 112.5887 0001693 138.7679 221.3659 14.74870516874025 UK-DMC 2 1 35683U 09041C 25310.29637376 .00001361 00000+0 20719-3 0 9995 2 35683 97.8539 86.2377 0001053 88.2577 271.8753 14.75496773873696 DMC3-FM1 1 40715U 15032A 25310.25865723 .00001935 00000+0 23089-3 0 9999 2 40715 97.6733 178.7746 0007060 71.7709 288.4275 14.85347090556810 DMC3-FM2 1 40716U 15032B 25310.28118832 .00001070 00000+0 13039-3 0 9999 2 40716 97.6784 180.2145 0007591 75.9202 284.2856 14.85341535556818 DMC3-FM3 1 40717U 15032C 25310.23536336 .00001049 00000+0 12800-3 0 9999 2 40717 97.6843 181.7789 0006929 76.6969 283.5019 14.85342376556814